Regional Weather Roundup
Issued by NWS

Home | Current Version | Previous Version | Text Only | Print | Product List | Glossary Off
Versions: 1 2 3 4 5 6 7 8 9 10 11 12 13 14 15 16 17 18 19 20 21 22 23 24 25 26 27 28 29 30 31 32 33 34 35 36 37 38 39 40 41 42 43 44 45 46 47 48 49 50

000
ASUS44 KMEG 021000
RWRTN
TENNESSEE HOURLY STATE WEATHER ROUNDUP
NATIONAL WEATHER SERVICE MEMPHIS TN
500 AM CDT THU OCT 02 2014

TNZ002-004-019-021-049-052-054-088>092-021100-
WEST TENNESSEE

CITY           SKY/WX    TMP DP  RH WIND       PRES   REMARKS
MEMPHIS INTL   PTCLDY    73  66  78 S7        29.91S
NWS MEMPHIS      N/A     71 N/A N/A MISG        N/A
JACKSON        CLEAR     70  61  73 S7        29.94R
DYERSBURG      CLEAR     70  54  56 S6        29.92S
UNION CITY     CLEAR     64  61  88 CALM      29.91S
PARIS          CLOUDY    68  57  68 S8        29.95R
LEXINGTON      CLEAR     63  59  88 CALM      29.96R
SAVANNAH       CLEAR     70  63  78 S3        29.97R
$$

TNZ008-025-027-028-033-062-065-066-021100-
NORTH MIDDLE TENNESSEE

CITY           SKY/WX    TMP DP  RH WIND       PRES   REMARKS
NASHVILLE      CLEAR     63  58  83 S5        29.99R
CLARKSVILLE    CLOUDY    64  61  90 SE6       29.96R
COOKEVILLE     CLEAR     52  52 100 CALM      30.02S
CROSSVILLE     CLEAR     59  54  83 CALM      30.08S
$$

TNZ061-075-076-078-094-096-097-021100-
SOUTH MIDDLE TENNESSEE

CITY           SKY/WX    TMP DP  RH WIND       PRES   REMARKS
FAYETTEVILLE   CLEAR     64  57  77 S8        30.02S
TULLAHOMA      CLEAR     59  55  88 CALM      30.04R
WINCHESTER     CLEAR     63  59  88 SE6       30.04R
SHELBYVILLE    CLEAR     64  61  88 SE5       30.02R
$$

TNZ017-018-042-046-047-021100-
NORTHEAST TENNESSEE

CITY           SKY/WX    TMP DP  RH WIND       PRES   REMARKS
TRI CITIES     CLEAR     53  50  89 CALM      30.10R FOG
ELIZABETHTON   SUNNY     54  52  94 NE3       30.11R
$$

TNZ012-013-036-069-073-074-021100-
CENTRAL EAST TENNESSEE

CITY           SKY/WX    TMP DP  RH WIND       PRES   REMARKS
KNOXVILLE      CLEAR     58  55  90 CALM      30.06R
OAK RIDGE      PTCLDY    56  54  93 CALM      30.09R
GATLINBURG     SUNNY     54  52  94 CALM      30.07S
MORRISTOWN     SUNNY     55  54  94 E3        30.09R
$$

TNZ083-085-099-021100-
SOUTHEAST TENNESSEE

CITY           SKY/WX    TMP DP  RH WIND       PRES   REMARKS
CHATTANOOGA    PTCLDY    61  58  90 CALM      30.06R
$$

SKY/WX REPORTED AS FAIR MEANS FEW OR NO CLOUDS BELOW
12 THOUSAND FEET.




USA.gov is the U.S. government's official web portal to all federal, state and local government web resources and services.